User: anonymous
Location: Washington
(38.8950°N, 77.0370°W)
Time: 22:20:15
(UTC-04:00)
Language:

IDEFIX/ARIANE 42P - Orbit

View from above orbital plane
View from above orbital plane
View from above satellite
View from above satellite

Ground track
Ground track

The orbit data is extracted from the following two-line orbital elements,

1 27422U 02021B   14245.18235883  .00000079  00000-0  47357-4 0  5730
2 27422 098.2938 283.9845 0012431 022.3110 023.6266 14.29043849641131
Epoch (UTC): 02 September 2014 04:22:35
Eccentricity: 0.0012431
inclination: 98.2938°
perigee height: 786 km
apogee height: 804 km
right ascension of ascending node: 283.9845°
argument of perigee: 22.3110°
revolutions per day: 14.29043849
mean anomaly at epoch: 23.6266°
orbit number at epoch: 64113

The dashed part of the orbit path shows where the satellite is in the earth's shadow,  

DLR